TimeAST,TemperatureF,Dew PointF,Humidity,Sea Level PressureIn,VisibilityMPH,Wind Direction,Wind SpeedMPH,Gust SpeedMPH,PrecipitationIn,Events,Conditions,WindDirDegrees,DateUTC
12:00 AM,77.0,69.8,78,29.98,6.2,NE,5.8,-,N/A,,Partly Cloudy,50,2012-12-31 04:00:00
1:00 AM,77.0,69.8,78,29.98,6.2,Calm,Calm,-,N/A,,Partly Cloudy,0,2012-12-31 05:00:00
2:00 AM,77.0,73.4,89,29.95,6.2,Calm,Calm,-,N/A,,Partly Cloudy,0,2012-12-31 06:00:00
3:00 AM,77.0,69.8,78,29.95,6.2,Calm,Calm,-,N/A,,Partly Cloudy,0,2012-12-31 07:00:00
4:00 AM,77.0,69.8,78,29.95,6.2,Calm,Calm,-,N/A,,Partly Cloudy,0,2012-12-31 08:00:00
5:00 AM,75.2,69.8,83,29.95,6.2,Calm,Calm,-,N/A,,Partly Cloudy,0,2012-12-31 09:00:00
6:00 AM,75.2,69.8,83,29.95,6.2,Calm,Calm,-,N/A,,Partly Cloudy,0,2012-12-31 10:00:00
7:00 AM,75.2,69.8,83,29.98,6.2,Calm,Calm,-,N/A,,Partly Cloudy,0,2012-12-31 11:00:00
8:00 AM,78.8,71.6,78,30.01,6.2,ENE,3.5,-,N/A,,Partly Cloudy,60,2012-12-31 12:00:00
9:00 AM,82.4,73.4,74,30.01,6.2,East,4.6,-,N/A,,Partly Cloudy,90,2012-12-31 13:00:00
10:00 AM,84.2,73.4,70,30.04,6.2,NE,5.8,-,N/A,,Partly Cloudy,50,2012-12-31 14:00:00
11:00 AM,86.0,71.6,62,30.01,6.2,ESE,18.4,-,N/A,,Partly Cloudy,110,2012-12-31 15:00:00
12:00 PM,86.0,73.4,66,29.98,6.2,East,18.4,-,N/A,,Partly Cloudy,100,2012-12-31 16:00:00
1:00 PM,86.0,73.4,66,29.95,6.2,East,16.1,-,N/A,,Partly Cloudy,100,2012-12-31 17:00:00
2:00 PM,86.0,71.6,62,29.95,6.2,East,18.4,-,N/A,,Partly Cloudy,100,2012-12-31 18:00:00
3:00 PM,86.0,69.8,58,29.92,6.2,East,18.4,-,N/A,,Partly Cloudy,100,2012-12-31 19:00:00
4:00 PM,84.2,69.8,62,29.92,6.2,ESE,16.1,-,N/A,,Partly Cloudy,110,2012-12-31 20:00:00
5:00 PM,82.4,69.8,66,29.92,6.2,East,12.7,-,N/A,,Partly Cloudy,100,2012-12-31 21:00:00
6:00 PM,80.6,69.8,70,29.92,6.2,ENE,5.8,-,N/A,,Partly Cloudy,70,2012-12-31 22:00:00
7:00 PM,78.8,69.8,74,29.92,6.2,Calm,Calm,-,N/A,,Partly Cloudy,0,2012-12-31 23:00:00
8:00 PM,77.0,68.0,74,29.95,6.2,Calm,Calm,-,N/A,,Partly Cloudy,0,2013-01-01 00:00:00
9:00 PM,77.0,69.8,78,29.95,6.2,Calm,Calm,-,N/A,,Partly Cloudy,0,2013-01-01 01:00:00
10:00 PM,77.0,69.8,78,29.95,6.2,Calm,Calm,-,N/A,,Partly Cloudy,0,2013-01-01 02:00:00
11:00 PM,77.0,69.8,78,29.95,6.2,Calm,Calm,-,N/A,,Partly Cloudy,0,2013-01-01 03:00:00